�������l�o���
Date,Time,MP-1(��Sv/h),MP-2(��Sv/h),MP-3(��Sv/h),MP-4(��Sv/h),MP-5(��Sv/h),MP-6(��Sv/h),MP-7(��Sv/h),MP-8(��Sv/h),����,����(m/s),���J
2017/06/07,00:00,1.018,1.630,1.086,1.936,1.333,0.538,0.984,0.908,��,6.9,��
2017/06/07,00:10,1.019,1.631,1.084,1.941,1.334,0.538,0.984,0.906,��,7.4,��
2017/06/07,00:20,1.020,1.630,1.084,1.938,1.333,0.538,0.985,0.907,��,7.7,��
2017/06/07,00:30,1.018,1.626,1.084,1.938,1.334,0.539,0.984,0.909,��,6.8,��
2017/06/07,00:40,1.019,1.626,1.085,1.937,1.332,0.537,0.985,0.907,��,7.3,��
2017/06/07,00:50,1.020,1.632,1.084,1.940,1.333,0.539,0.983,0.906,��,7.3,��
2017/06/07,01:00,1.020,1.630,1.082,1.937,1.332,0.537,0.985,0.908,��,7.0,��
2017/06/07,01:10,1.018,1.630,1.082,1.939,1.334,0.536,0.983,0.907,��,6.8,��
2017/06/07,01:20,1.020,1.631,1.085,1.936,1.334,0.536,0.987,0.907,��,6.4,��
2017/06/07,01:30,1.019,1.629,1.083,1.940,1.332,0.537,0.983,0.908,��,6.2,��
2017/06/07,01:40,1.020,1.629,1.083,1.940,1.332,0.537,0.984,0.909,��,6.9,��
2017/06/07,01:50,1.019,1.629,1.084,1.940,1.333,0.537,0.985,0.906,��,7.4,��
2017/06/07,02:00,1.019,1.627,1.083,1.942,1.333,0.537,0.984,0.908,��,7.4,��
2017/06/07,02:10,1.019,1.629,1.082,1.939,1.335,0.538,0.985,0.909,��,7.5,��
2017/06/07,02:20,1.020,1.628,1.084,1.942,1.337,0.536,0.984,0.907,��,7.3,��
2017/06/07,02:30,1.018,1.628,1.085,1.940,1.335,0.537,0.986,0.909,��,7.1,��
2017/06/07,02:40,1.017,1.625,1.081,1.937,1.333,0.536,0.983,0.909,��,6.6,��
2017/06/07,02:50,1.020,1.627,1.083,1.940,1.333,0.539,0.984,0.908,��,6.9,��
2017/06/07,03:00,1.021,1.628,1.085,1.940,1.334,0.538,0.985,0.908,��,7.1,��
2017/06/07,03:10,1.017,1.626,1.084,1.941,1.334,0.538,0.985,0.908,��,6.7,��
2017/06/07,03:20,1.019,1.627,1.083,1.936,1.332,0.538,0.983,0.908,��,6.5,��
2017/06/07,03:30,1.019,1.627,1.083,1.939,1.331,0.537,0.985,0.906,��,5.9,��
2017/06/07,03:40,1.017,1.627,1.084,1.942,1.333,0.537,0.983,0.908,��,5.2,��
2017/06/07,03:50,1.018,1.626,1.083,1.940,1.333,0.538,0.983,0.908,��,4.8,��
2017/06/07,04:00,1.016,1.627,1.083,1.937,1.331,0.537,0.983,0.908,��,4.6,��
2017/06/07,04:10,1.016,1.628,1.084,1.939,1.334,0.539,0.983,0.908,��,4.0,��
2017/06/07,04:20,1.018,1.626,1.084,1.940,1.333,0.537,0.982,0.906,��,3.8,��
2017/06/07,04:30,1.017,1.627,1.084,1.939,1.332,0.538,0.985,0.909,��,4.6,��
2017/06/07,04:40,1.018,1.627,1.082,1.939,1.334,0.537,0.984,0.908,��,4.5,��
2017/06/07,04:50,1.018,1.625,1.084,1.936,1.332,0.537,0.984,0.907,��,4.2,��
2017/06/07,05:00,1.017,1.626,1.083,1.938,1.331,0.537,0.985,0.906,��쐼,3.5,��
2017/06/07,05:10,1.017,1.627,1.083,1.937,1.332,0.537,0.985,0.908,��쐼,3.8,��
2017/06/07,05:20,1.019,1.627,1.082,1.936,1.333,0.537,0.985,0.909,��쐼,4.0,��
2017/06/07,05:30,1.019,1.628,1.086,1.937,1.332,0.538,0.986,0.908,��쐼,3.0,��
2017/06/07,05:40,1.019,1.627,1.087,1.939,1.333,0.538,0.983,0.908,�쐼,1.1,��
2017/06/07,05:50,1.019,1.629,1.083,1.937,1.334,0.537,0.985,0.908,��쐼,0.8,��
2017/06/07,06:00,1.019,1.629,1.087,1.940,1.334,0.538,0.984,0.908,��,0.6,��
2017/06/07,06:10,1.019,1.629,1.087,1.942,1.333,0.538,0.984,0.909,-,CALM,��
2017/06/07,06:20,1.022,1.627,1.085,1.941,1.334,0.537,0.988,0.907,-,CALM,��
2017/06/07,06:30,1.021,1.632,1.085,1.938,1.335,0.539,0.987,0.909,-,CALM,��
2017/06/07,06:40,1.021,1.630,1.088,1.940,1.334,0.537,0.984,0.911,-,CALM,��
2017/06/07,06:50,1.022,1.631,1.085,1.944,1.334,0.537,0.984,0.908,���k��,0.6,��
2017/06/07,07:00,1.020,1.632,1.088,1.942,1.336,0.537,0.983,0.911,-,CALM,��
2017/06/07,07:10,1.021,1.631,1.085,1.939,1.336,0.537,0.982,0.910,-,CALM,��
2017/06/07,07:20,1.019,1.632,1.088,1.942,1.335,0.537,0.984,0.910,-,CALM,��
2017/06/07,07:30,1.022,1.633,1.087,1.940,1.337,0.536,0.983,0.909,-,CALM,��
2017/06/07,07:40,1.020,1.632,1.088,1.941,1.336,0.535,0.984,0.908,�쓌,0.9,��
2017/06/07,07:50,1.020,1.630,1.087,1.941,1.336,0.537,0.984,0.906,��쓌,1.2,��
2017/06/07,08:00,1.020,1.628,1.087,1.942,1.335,0.536,0.982,0.908,��쓌,1.1,��
2017/06/07,08:10,1.017,1.627,1.086,1.941,1.336,0.536,0.984,0.907,��쓌,1.7,��
2017/06/07,08:20,1.017,1.626,1.086,1.941,1.334,0.534,0.983,0.908,�쓌,0.9,��
2017/06/07,08:30,1.018,1.620,1.085,1.940,1.334,0.534,0.984,0.908,�쓌,1.4,��
2017/06/07,08:40,1.018,1.622,1.087,1.946,1.333,0.535,0.983,0.905,�쓌,1.2,��
2017/06/07,08:50,1.021,1.625,1.086,1.941,1.334,0.534,0.982,0.907,�쓌,0.6,��
2017/06/07,09:00,1.019,1.625,1.080,1.945,1.332,0.536,0.983,0.907,�쓌,2.0,��
2017/06/07,09:10,1.018,1.627,1.085,1.944,1.333,0.535,0.985,0.907,���쓌,1.5,��
2017/06/07,09:20,1.020,1.625,1.085,1.944,1.332,0.535,0.984,0.906,�쓌,2.5,��
2017/06/07,09:30,1.020,1.626,1.084,1.948,1.333,0.535,0.984,0.907,��쓌,3.3,��
2017/06/07,09:40,1.020,1.627,1.084,1.943,1.333,0.535,0.985,0.907,��,4.9,��
2017/06/07,09:50,1.019,1.625,1.084,1.946,1.332,0.536,0.985,0.908,��,4.4,��
2017/06/07,10:00,1.017,1.625,1.081,1.945,1.334,0.535,0.986,0.905,��,4.4,��
2017/06/07,10:10,1.022,1.627,1.084,1.945,1.332,0.536,0.985,0.904,��,4.2,��
2017/06/07,10:20,1.022,1.628,1.083,1.946,1.332,0.536,0.984,0.906,��쓌,6.4,��
2017/06/07,10:30,1.021,1.628,1.086,1.945,1.335,0.535,0.986,0.905,��쓌,8.4,��
2017/06/07,10:40,1.021,1.630,1.084,1.945,1.336,0.537,0.984,0.907,��,9.1,��
2017/06/07,10:50,1.024,1.630,1.083,1.946,1.335,0.537,0.986,0.907,��,8.9,��
2017/06/07,11:00,1.022,1.631,1.083,1.946,1.332,0.537,0.985,0.908,��,8.3,��
2017/06/07,11:10,1.022,1.630,1.085,1.948,1.335,0.536,0.985,0.906,��,8.1,��
2017/06/07,11:20,1.023,1.631,1.084,1.943,1.338,0.537,0.985,0.908,��,9.2,��
2017/06/07,11:30,1.022,1.631,1.084,1.942,1.336,0.537,0.984,0.906,��,10.4,��
2017/06/07,11:40,1.021,1.632,1.083,1.945,1.335,0.536,0.985,0.906,��,10.3,��
2017/06/07,11:50,1.021,1.632,1.085,1.944,1.336,0.537,0.985,0.905,��,10.5,��
2017/06/07,12:00,1.021,1.633,1.085,1.944,1.337,0.539,0.986,0.908,��,10.8,��
2017/06/07,12:10,1.024,1.631,1.086,1.945,1.335,0.536,0.985,0.907,��쓌,9.3,��
2017/06/07,12:20,1.021,1.631,1.086,1.940,1.336,0.538,0.985,0.906,��,10.3,��
2017/06/07,12:30,1.022,1.633,1.086,1.945,1.336,0.537,0.985,0.907,��,9.9,��
2017/06/07,12:40,1.021,1.634,1.087,1.944,1.336,0.537,0.987,0.908,��,11.3,��
2017/06/07,12:50,1.022,1.635,1.086,1.947,1.337,0.538,0.985,0.907,��,9.6,��
2017/06/07,13:00,1.024,1.634,1.084,1.946,1.338,0.539,0.987,0.908,��,10.5,��
2017/06/07,13:10,1.024,1.635,1.084,1.947,1.338,0.538,0.989,0.907,��,10.2,��
2017/06/07,13:20,1.024,1.635,1.088,1.946,1.339,0.541,0.987,0.907,��,11.6,��
2017/06/07,13:30,1.021,1.637,1.086,1.946,1.340,0.538,0.987,0.908,��,11.7,��
2017/06/07,13:40,1.021,1.635,1.084,1.948,1.340,0.539,0.987,0.908,��쓌,13.1,��
2017/06/07,13:50,1.022,1.634,1.085,1.945,1.338,0.539,0.987,0.909,��쓌,12.4,��
2017/06/07,14:00,1.024,1.637,1.086,1.949,1.338,0.538,0.984,0.908,��,10.2,��
2017/06/07,14:10,1.025,1.635,1.085,1.946,1.341,0.536,0.988,0.907,��쓌,10.9,��
2017/06/07,14:20,1.021,1.637,1.083,1.946,1.339,0.538,0.987,0.907,��쓌,11.8,��
2017/06/07,14:30,1.024,1.637,1.084,1.949,1.338,0.538,0.986,0.906,��,12.0,��
2017/06/07,14:40,1.023,1.634,1.084,1.949,1.338,0.537,0.985,0.908,��,10.3,��
2017/06/07,14:50,1.021,1.634,1.087,1.951,1.338,0.537,0.986,0.908,��,10.4,��
2017/06/07,15:00,1.021,1.636,1.087,1.949,1.338,0.537,0.987,0.909,��,10.0,��
2017/06/07,15:10,1.021,1.633,1.089,1.951,1.339,0.538,0.988,0.910,��,7.9,��
2017/06/07,15:20,1.024,1.633,1.085,1.949,1.337,0.538,0.987,0.911,��,9.9,��
2017/06/07,15:30,1.023,1.632,1.087,1.950,1.339,0.538,0.987,0.909,��,8.8,��
2017/06/07,15:40,1.024,1.634,1.087,1.951,1.340,0.539,0.989,0.909,��,12.0,��
2017/06/07,15:50,1.023,1.637,1.088,1.950,1.339,0.538,0.988,0.907,��,9.0,��
2017/06/07,16:00,1.024,1.637,1.089,1.948,1.340,0.538,0.989,0.909,��,10.3,��
2017/06/07,16:10,1.022,1.634,1.088,1.949,1.340,0.537,0.987,0.910,��,9.4,��
2017/06/07,16:20,1.024,1.635,1.089,1.953,1.338,0.538,0.986,0.910,��,9.7,��
2017/06/07,16:30,1.025,1.634,1.087,1.952,1.340,0.539,0.988,0.911,��,8.8,��
2017/06/07,16:40,1.022,1.640,1.087,1.952,1.338,0.537,0.986,0.908,��,8.6,��
2017/06/07,16:50,1.026,1.635,1.086,1.951,1.341,0.538,0.989,0.908,��,8.3,��
2017/06/07,17:00,1.023,1.638,1.089,1.948,1.341,0.538,0.989,0.908,��,8.3,��
2017/06/07,17:10,1.023,1.634,1.091,1.952,1.339,0.537,0.987,0.910,��,7.4,��
2017/06/07,17:20,1.024,1.633,1.089,1.951,1.341,0.538,0.989,0.910,��,7.8,��
2017/06/07,17:30,1.022,1.634,1.089,1.950,1.339,0.537,0.987,0.909,��,7.6,��
2017/06/07,17:40,1.024,1.637,1.089,1.951,1.339,0.538,0.988,0.909,��,6.5,��
2017/06/07,17:50,1.024,1.633,1.091,1.950,1.339,0.539,0.988,0.910,��,7.4,��
2017/06/07,18:00,1.024,1.638,1.091,1.951,1.342,0.540,0.990,0.910,��,6.6,��
2017/06/07,18:10,1.024,1.638,1.090,1.948,1.342,0.538,0.986,0.913,��,7.3,��
2017/06/07,18:20,1.023,1.634,1.092,1.951,1.340,0.536,0.989,0.909,��,8.5,��
2017/06/07,18:30,1.024,1.634,1.091,1.954,1.339,0.539,0.988,0.912,��,8.0,��
2017/06/07,18:40,1.023,1.636,1.089,1.951,1.342,0.538,0.988,0.912,��,6.9,��
2017/06/07,18:50,1.023,1.638,1.094,1.952,1.342,0.540,0.985,0.911,��,6.4,��
2017/06/07,19:00,1.025,1.638,1.091,1.953,1.340,0.541,0.987,0.911,��,7.8,��
2017/06/07,19:10,1.024,1.637,1.091,1.952,1.341,0.537,0.989,0.911,��,8.8,��
2017/06/07,19:20,1.025,1.637,1.091,1.952,1.342,0.539,0.987,0.911,��,7.2,��
2017/06/07,19:30,1.025,1.634,1.089,1.949,1.340,0.538,0.987,0.912,��,7.6,��
2017/06/07,19:40,1.023,1.636,1.091,1.950,1.340,0.538,0.989,0.912,��,6.7,��
2017/06/07,19:50,1.024,1.640,1.089,1.949,1.341,0.539,0.989,0.910,��,5.4,��
2017/06/07,20:00,1.022,1.642,1.090,1.951,1.343,0.538,0.991,0.911,��,6.3,��
2017/06/07,20:10,1.022,1.641,1.090,1.950,1.342,0.538,0.989,0.909,��,6.1,��
2017/06/07,20:20,1.024,1.642,1.093,1.950,1.341,0.541,0.988,0.911,��,8.2,��
2017/06/07,20:30,1.025,1.640,1.093,1.949,1.342,0.541,0.991,0.911,��,8.4,��
2017/06/07,20:40,1.025,1.640,1.089,1.948,1.343,0.540,0.988,0.911,��,9.0,��
2017/06/07,20:50,1.024,1.644,1.092,1.950,1.346,0.542,0.990,0.912,��,8.7,��
2017/06/07,21:00,1.025,1.641,1.092,1.951,1.345,0.538,0.989,0.911,��,9.2,��
2017/06/07,21:10,1.025,1.639,1.091,1.946,1.344,0.541,0.988,0.912,��,7.9,��
2017/06/07,21:20,1.024,1.639,1.091,1.952,1.341,0.540,0.986,0.911,��,8.1,��
2017/06/07,21:30,1.026,1.639,1.090,1.951,1.343,0.540,0.989,0.911,��,8.8,��
2017/06/07,21:40,1.023,1.638,1.091,1.948,1.340,0.540,0.989,0.912,��,9.8,��
2017/06/07,21:50,1.025,1.639,1.090,1.947,1.338,0.539,0.988,0.910,��,9.3,��
2017/06/07,22:00,1.025,1.639,1.093,1.949,1.342,0.540,0.988,0.911,��,8.5,��
2017/06/07,22:10,1.026,1.638,1.091,1.951,1.340,0.540,0.990,0.910,��,8.4,�L
2017/06/07,22:20,1.025,1.640,1.092,1.953,1.341,0.540,0.990,0.911,��,9.1,�L
2017/06/07,22:30,1.025,1.639,1.092,1.951,1.341,0.540,0.988,0.912,��,9.4,�L
2017/06/07,22:40,1.027,1.641,1.092,1.949,1.343,0.540,0.988,0.911,��,10.2,�L
2017/06/07,22:50,1.023,1.642,1.090,1.949,1.341,0.540,0.988,0.911,��,10.5,�L
2017/06/07,23:00,1.026,1.641,1.092,1.951,1.343,0.541,0.989,0.912,��,13.0,�L
2017/06/07,23:10,1.024,1.641,1.092,1.952,1.344,0.540,0.988,0.912,��,11.3,�L
2017/06/07,23:20,1.027,1.641,1.093,1.952,1.343,0.542,0.989,0.911,��,11.9,�L
2017/06/07,23:30,1.028,1.643,1.092,1.954,1.344,0.541,0.990,0.913,��,11.1,�L
2017/06/07,23:40,1.028,1.640,1.095,1.953,1.344,0.540,0.992,0.912,��,10.7,�L
2017/06/07,23:50,1.029,1.643,1.094,1.953,1.344,0.544,0.991,0.912,��,10.2,�L
